Time,TemperatureF,DewpointF,PressureIn,WindDirection,WindDirectionDegrees,WindSpeedMPH,WindSpeedGustMPH,Humidity,HourlyPrecipIn,Conditions,Clouds,dailyrainin,SoftwareType,DateUTC
2013-01-08 00:02:00,37.0,26.0,29.96,WSW,248,2.0,5.0,63,0.00,,,0.29,,2013-01-08 08:02:00,
2013-01-08 00:11:00,37.0,26.0,29.96,WSW,248,2.0,5.0,63,0.00,,,0.29,,2013-01-08 08:11:00,
2013-01-08 00:22:00,38.0,27.0,29.96,WSW,241,2.0,5.0,63,0.00,,,0.29,,2013-01-08 08:22:00,
2013-01-08 00:32:00,37.0,26.0,29.96,WSW,246,2.0,3.0,63,0.00,,,0.28,,2013-01-08 08:32:00,
2013-01-08 00:42:00,37.0,26.0,29.96,WSW,246,2.0,3.0,63,0.00,,,0.28,,2013-01-08 08:42:00,
2013-01-08 00:52:00,38.0,27.0,29.96,WSW,248,3.0,5.0,64,0.00,,,0.28,,2013-01-08 08:52:00,
2013-01-08 01:02:00,38.0,27.0,29.96,SW,231,2.0,3.0,63,0.00,,,0.28,,2013-01-08 09:02:00,
2013-01-08 01:11:00,38.0,27.0,29.96,SW,231,2.0,3.0,63,0.00,,,0.28,,2013-01-08 09:11:00,
2013-01-08 01:22:00,39.0,27.0,29.96,WSW,238,3.0,7.0,63,0.00,,,0.28,,2013-01-08 09:22:00,
2013-01-08 01:32:00,39.0,27.0,29.96,WSW,240,2.0,5.0,63,0.00,,,0.28,,2013-01-08 09:32:00,
2013-01-08 01:42:00,39.0,27.0,29.96,WSW,240,2.0,5.0,63,0.00,,,0.28,,2013-01-08 09:42:00,
2013-01-08 01:52:00,39.0,27.0,29.96,SSW,202,2.0,5.0,62,0.00,,,0.28,,2013-01-08 09:52:00,
2013-01-08 02:02:00,39.0,27.0,29.96,South,186,3.0,5.0,62,0.00,,,0.28,,2013-01-08 10:02:00,
2013-01-08 02:12:00,39.0,27.0,29.96,South,186,3.0,5.0,62,0.00,,,0.28,,2013-01-08 10:12:00,
2013-01-08 02:22:00,39.0,27.0,29.96,SE,130,2.0,3.0,63,0.00,,,0.28,,2013-01-08 10:22:00,
2013-01-08 02:32:00,39.0,27.0,29.96,SSW,204,3.0,3.0,62,0.00,,,0.26,,2013-01-08 10:32:00,
2013-01-08 02:42:00,39.0,27.0,29.96,SSW,204,3.0,3.0,62,0.00,,,0.26,,2013-01-08 10:42:00,
2013-01-08 02:52:00,39.0,27.0,29.96,SSE,167,2.0,3.0,63,0.00,,,0.25,,2013-01-08 10:52:00,
2013-01-08 03:02:00,39.0,27.0,29.99,SSW,201,2.0,3.0,63,0.00,,,0.21,,2013-01-08 11:02:00,
2013-01-08 03:12:00,39.0,27.0,29.99,SSW,201,2.0,3.0,63,0.00,,,0.21,,2013-01-08 11:12:00,
2013-01-08 03:22:00,39.0,28.0,29.99,SSW,202,2.0,3.0,64,0.00,,,0.19,,2013-01-08 11:22:00,
2013-01-08 03:32:00,39.0,28.0,29.96,SSE,153,1.0,2.0,64,0.00,,,0.17,,2013-01-08 11:32:00,
2013-01-08 03:42:00,39.0,28.0,29.96,SSE,153,1.0,2.0,64,0.00,,,0.17,,2013-01-08 11:42:00,
2013-01-08 03:52:00,39.0,28.0,29.96,SSE,158,1.0,2.0,64,0.00,,,0.16,,2013-01-08 11:52:00,
2013-01-08 04:02:00,39.0,28.0,29.96,SE,142,1.0,3.0,65,0.00,,,0.14,,2013-01-08 12:02:00,
2013-01-08 04:12:00,39.0,28.0,29.96,SE,142,1.0,3.0,65,0.00,,,0.14,,2013-01-08 12:12:00,
2013-01-08 04:22:00,39.0,28.0,29.96,NNE,22,1.0,2.0,65,0.00,,,0.13,,2013-01-08 12:22:00,
2013-01-08 04:32:00,38.0,27.0,29.96,SE,132,2.0,2.0,65,0.00,,,0.09,,2013-01-08 12:32:00,
2013-01-08 04:42:00,38.0,27.0,29.96,SE,132,2.0,2.0,65,0.00,,,0.09,,2013-01-08 12:42:00,
2013-01-08 04:52:00,38.0,27.0,29.96,SSE,158,2.0,3.0,65,0.00,,,0.08,,2013-01-08 12:52:00,
2013-01-08 05:02:00,38.0,28.0,29.93,SSE,162,2.0,5.0,66,0.00,,,0.07,,2013-01-08 13:02:00,
2013-01-08 05:12:00,38.0,28.0,29.93,SSE,162,2.0,5.0,66,0.00,,,0.07,,2013-01-08 13:12:00,
2013-01-08 05:22:00,38.0,28.0,29.93,South,171,2.0,3.0,66,0.00,,,0.06,,2013-01-08 13:22:00,
2013-01-08 05:32:00,39.0,29.0,29.93,SSE,166,4.0,8.0,66,0.00,,,0.02,,2013-01-08 13:32:00,
2013-01-08 05:42:00,39.0,29.0,29.93,SSE,166,4.0,8.0,66,0.00,,,0.02,,2013-01-08 13:42:00,
2013-01-08 05:52:00,39.0,29.0,29.93,SSE,168,3.0,5.0,66,0.00,,,0.02,,2013-01-08 13:52:00,
2013-01-08 06:02:00,38.0,28.0,29.93,SSE,168,2.0,5.0,67,0.00,,,0.01,,2013-01-08 14:02:00,
2013-01-08 06:12:00,38.0,28.0,29.93,SSE,168,2.0,5.0,67,0.00,,,0.01,,2013-01-08 14:12:00,
2013-01-08 06:22:00,38.0,28.0,29.93,SSE,155,2.0,3.0,67,0.00,,,0.00,,2013-01-08 14:22:00,
2013-01-08 06:32:00,39.0,29.0,29.93,South,179,3.0,5.0,67,0.00,,,0.00,,2013-01-08 14:32:00,
2013-01-08 06:42:00,39.0,29.0,29.93,South,179,3.0,5.0,67,0.00,,,0.00,,2013-01-08 14:42:00,
2013-01-08 06:52:00,39.0,29.0,29.93,South,176,4.0,8.0,66,0.00,,,0.00,,2013-01-08 14:52:00,
2013-01-08 07:02:00,40.0,30.0,29.93,SSE,166,6.0,8.0,66,0.00,,,0.00,,2013-01-08 15:02:00,
2013-01-08 07:12:00,40.0,30.0,29.93,SSE,166,6.0,8.0,66,0.00,,,0.00,,2013-01-08 15:12:00,
2013-01-08 07:22:00,40.0,30.0,29.93,SSW,198,6.0,9.0,66,0.00,,,0.00,,2013-01-08 15:22:00,
2013-01-08 07:33:00,40.0,30.0,29.93,SSW,213,6.0,8.0,66,0.00,,,0.00,,2013-01-08 15:33:00,
2013-01-08 07:42:00,40.0,30.0,29.93,SSW,213,6.0,8.0,66,0.00,,,0.00,,2013-01-08 15:42:00,
2013-01-08 07:52:00,40.0,30.0,29.93,SW,217,7.0,14.0,66,0.00,,,0.00,,2013-01-08 15:52:00,
2013-01-08 08:02:00,41.0,31.0,29.93,SSW,202,6.0,9.0,66,0.00,,,0.00,,2013-01-08 16:02:00,
2013-01-08 08:12:00,41.0,31.0,29.93,SSW,202,6.0,9.0,66,0.00,,,0.00,,2013-01-08 16:12:00,
2013-01-08 08:22:00,41.0,31.0,29.93,SSW,202,9.0,12.0,67,0.00,,,0.00,,2013-01-08 16:22:00,
2013-01-08 08:33:00,41.0,31.0,29.93,South,180,7.0,10.0,66,0.00,,,0.00,,2013-01-08 16:33:00,
2013-01-08 08:42:00,41.0,31.0,29.93,South,180,7.0,10.0,66,0.00,,,0.00,,2013-01-08 16:42:00,
2013-01-08 08:52:00,42.0,31.0,29.93,SSW,202,8.0,12.0,66,0.00,,,0.00,,2013-01-08 16:52:00,
2013-01-08 09:02:00,43.0,32.0,29.93,SW,233,9.0,10.0,65,0.00,,,0.00,,2013-01-08 17:02:00,
2013-01-08 09:12:00,43.0,32.0,29.93,SW,233,9.0,10.0,65,0.00,,,0.00,,2013-01-08 17:12:00,
2013-01-08 09:22:00,43.0,32.0,29.93,South,188,7.0,13.0,64,0.00,,,0.00,,2013-01-08 17:22:00,
2013-01-08 09:33:00,45.0,33.0,29.93,SSW,211,9.0,15.0,62,0.00,,,0.00,,2013-01-08 17:33:00,
2013-01-08 09:42:00,45.0,33.0,29.93,SSW,211,9.0,15.0,62,0.00,,,0.00,,2013-01-08 17:42:00,
2013-01-08 09:53:00,45.0,33.0,29.93,SW,214,8.0,16.0,62,0.00,,,0.00,,2013-01-08 17:53:00,
2013-01-08 10:03:00,46.0,33.0,29.93,SSW,211,10.0,17.0,60,0.00,,,0.00,,2013-01-08 18:03:00,
2013-01-08 10:12:00,46.0,33.0,29.93,SSW,211,10.0,17.0,60,0.00,,,0.00,,2013-01-08 18:12:00,
2013-01-08 10:22:00,46.0,32.0,29.93,SSW,202,10.0,14.0,59,0.00,,,0.00,,2013-01-08 18:22:00,
2013-01-08 10:33:00,47.0,33.0,29.93,SSW,202,9.0,20.0,59,0.00,,,0.00,,2013-01-08 18:33:00,
2013-01-08 10:43:00,47.0,33.0,29.93,SSW,202,9.0,20.0,59,0.00,,,0.00,,2013-01-08 18:43:00,
2013-01-08 10:52:00,47.0,33.0,29.93,SW,225,10.0,14.0,58,0.00,,,0.00,,2013-01-08 18:52:00,
2013-01-08 11:02:00,48.0,34.0,29.90,SSW,193,12.0,17.0,57,0.00,,,0.00,,2013-01-08 19:02:00,
2013-01-08 11:12:00,48.0,34.0,29.90,SSW,193,12.0,17.0,57,0.00,,,0.00,,2013-01-08 19:12:00,
2013-01-08 11:22:00,48.0,33.0,29.90,SW,219,11.0,20.0,56,0.00,,,0.00,,2013-01-08 19:22:00,
2013-01-08 11:32:00,48.0,33.0,29.90,SW,222,13.0,18.0,56,0.00,,,0.00,,2013-01-08 19:32:00,
2013-01-08 11:42:00,48.0,33.0,29.90,SW,222,13.0,18.0,56,0.00,,,0.00,,2013-01-08 19:42:00,
2013-01-08 11:52:00,48.0,33.0,29.90,SW,223,10.0,16.0,56,0.00,,,0.00,,2013-01-08 19:52:00,
2013-01-08 12:02:00,47.0,32.0,29.90,SSW,202,11.0,15.0,56,0.00,,,0.00,,2013-01-08 20:02:00,
2013-01-08 12:12:00,47.0,32.0,29.90,SSW,202,11.0,15.0,56,0.00,,,0.00,,2013-01-08 20:12:00,
2013-01-08 12:22:00,47.0,32.0,29.90,SSW,195,9.0,14.0,56,0.00,,,0.00,,2013-01-08 20:22:00,
2013-01-08 12:33:00,46.0,32.0,29.90,SSW,195,8.0,16.0,57,0.00,,,0.00,,2013-01-08 20:33:00,
2013-01-08 12:42:00,46.0,32.0,29.90,SSW,195,8.0,16.0,57,0.00,,,0.00,,2013-01-08 20:42:00,
2013-01-08 12:53:00,47.0,33.0,29.90,West,263,9.0,14.0,57,0.00,,,0.00,,2013-01-08 20:53:00,
2013-01-08 13:02:00,48.0,33.0,29.90,WSW,247,9.0,15.0,56,0.00,,,0.00,,2013-01-08 21:02:00,
2013-01-08 13:12:00,48.0,33.0,29.90,WSW,247,9.0,15.0,56,0.00,,,0.00,,2013-01-08 21:12:00,
2013-01-08 13:22:00,48.0,33.0,29.90,WSW,247,9.0,15.0,56,0.00,,,0.00,,2013-01-08 21:22:00,
2013-01-08 13:33:00,48.0,33.0,29.90,SW,220,7.0,17.0,55,0.00,,,0.00,,2013-01-08 21:33:00,
2013-01-08 13:42:00,48.0,33.0,29.90,SW,220,7.0,17.0,55,0.00,,,0.00,,2013-01-08 21:42:00,
2013-01-08 13:53:00,48.0,33.0,29.90,SW,232,10.0,20.0,55,0.00,,,0.00,,2013-01-08 21:53:00,
2013-01-08 14:02:00,49.0,33.0,29.90,SW,229,9.0,15.0,54,0.00,,,0.00,,2013-01-08 22:02:00,
2013-01-08 14:12:00,49.0,33.0,29.90,SW,229,9.0,15.0,54,0.00,,,0.00,,2013-01-08 22:12:00,
2013-01-08 14:22:00,49.0,33.0,29.90,SW,229,9.0,15.0,54,0.00,,,0.00,,2013-01-08 22:22:00,
2013-01-08 14:32:00,49.0,33.0,29.90,SW,229,9.0,15.0,54,0.00,,,0.00,,2013-01-08 22:32:00,
2013-01-08 14:42:00,49.0,33.0,29.90,SW,229,9.0,15.0,54,0.00,,,0.00,,2013-01-08 22:42:00,
2013-01-08 15:02:00,47.0,33.0,29.87,SW,233,11.0,15.0,57,0.00,,,0.00,,2013-01-08 23:02:00,
2013-01-08 15:12:00,47.0,33.0,29.87,SW,233,11.0,15.0,57,0.00,,,0.00,,2013-01-08 23:12:00,
2013-01-08 15:22:00,47.0,33.0,29.87,SW,233,11.0,15.0,57,0.00,,,0.00,,2013-01-08 23:22:00,
2013-01-08 15:32:00,46.0,32.0,29.90,SW,226,7.0,18.0,58,0.00,,,0.00,,2013-01-08 23:32:00,
2013-01-08 15:42:00,46.0,32.0,29.90,SW,226,7.0,18.0,58,0.00,,,0.00,,2013-01-08 23:42:00,
2013-01-08 15:53:00,46.0,32.0,29.90,SW,226,7.0,18.0,58,0.00,,,0.00,,2013-01-08 23:53:00,
2013-01-08 16:02:00,47.0,33.0,29.90,SW,227,10.0,15.0,57,0.00,,,0.00,,2013-01-09 00:02:00,
2013-01-08 16:12:00,47.0,33.0,29.90,SW,227,10.0,15.0,57,0.00,,,0.00,,2013-01-09 00:12:00,
2013-01-08 16:22:00,46.0,32.0,29.90,SW,217,9.0,14.0,57,0.00,,,0.00,,2013-01-09 00:22:00,
2013-01-08 16:32:00,46.0,32.0,29.90,SW,217,8.0,15.0,57,0.00,,,0.00,,2013-01-09 00:32:00,
2013-01-08 16:42:00,46.0,32.0,29.90,SW,217,8.0,15.0,57,0.00,,,0.00,,2013-01-09 00:42:00,
2013-01-08 16:52:00,45.0,31.0,29.87,SW,224,9.0,14.0,58,0.00,,,0.00,,2013-01-09 00:52:00,
2013-01-08 17:02:00,45.0,31.0,29.87,SW,224,9.0,14.0,58,0.00,,,0.00,,2013-01-09 01:02:00,
2013-01-08 17:12:00,45.0,31.0,29.87,SW,224,9.0,14.0,58,0.00,,,0.00,,2013-01-09 01:12:00,
2013-01-08 17:22:00,45.0,31.0,29.87,SW,224,9.0,14.0,58,0.00,,,0.00,,2013-01-09 01:22:00,
2013-01-08 17:52:00,44.0,31.0,29.87,SSW,198,9.0,15.0,60,0.00,,,0.00,,2013-01-09 01:52:00,
2013-01-08 18:02:00,44.0,31.0,29.87,SSW,194,10.0,17.0,60,0.00,,,0.00,,2013-01-09 02:02:00,
2013-01-08 18:12:00,44.0,31.0,29.87,SSW,194,10.0,17.0,60,0.00,,,0.00,,2013-01-09 02:12:00,
2013-01-08 18:22:00,43.0,30.0,29.87,SSW,202,10.0,17.0,61,0.00,,,0.00,,2013-01-09 02:22:00,
2013-01-08 18:32:00,43.0,30.0,29.84,SSW,193,10.0,15.0,61,0.00,,,0.00,,2013-01-09 02:32:00,
2013-01-08 18:42:00,43.0,30.0,29.84,SSW,193,10.0,15.0,61,0.00,,,0.00,,2013-01-09 02:42:00,
2013-01-08 18:52:00,43.0,30.0,29.84,SSW,193,10.0,15.0,61,0.00,,,0.00,,2013-01-09 02:52:00,
2013-01-08 19:02:00,43.0,30.0,29.84,SSW,199,7.0,13.0,60,0.00,,,0.00,,2013-01-09 03:02:00,
2013-01-08 19:11:00,43.0,30.0,29.84,SSW,199,7.0,13.0,60,0.00,,,0.00,,2013-01-09 03:11:00,
2013-01-08 19:22:00,42.0,30.0,29.84,SSW,200,7.0,12.0,61,0.00,,,0.00,,2013-01-09 03:22:00,
2013-01-08 19:32:00,42.0,29.0,29.84,South,177,6.0,12.0,60,0.00,,,0.00,,2013-01-09 03:32:00,
2013-01-08 19:42:00,42.0,29.0,29.84,South,177,6.0,12.0,60,0.00,,,0.00,,2013-01-09 03:42:00,
2013-01-08 19:52:00,42.0,29.0,29.84,SSE,168,5.0,10.0,60,0.00,,,0.00,,2013-01-09 03:52:00,
2013-01-08 20:02:00,42.0,29.0,29.84,SSE,158,5.0,8.0,60,0.00,,,0.00,,2013-01-09 04:02:00,
2013-01-08 20:12:00,42.0,29.0,29.84,SSE,158,5.0,8.0,60,0.00,,,0.00,,2013-01-09 04:12:00,
2013-01-08 20:22:00,42.0,29.0,29.84,South,180,6.0,8.0,59,0.00,,,0.00,,2013-01-09 04:22:00,
2013-01-08 20:32:00,42.0,29.0,29.84,South,180,6.0,8.0,59,0.00,,,0.00,,2013-01-09 04:32:00,
2013-01-08 20:42:00,42.0,29.0,29.84,South,180,6.0,8.0,59,0.00,,,0.00,,2013-01-09 04:42:00,
2013-01-08 20:52:00,42.0,29.0,29.84,South,180,6.0,8.0,59,0.00,,,0.00,,2013-01-09 04:52:00,
2013-01-08 21:33:00,43.0,29.0,29.81,South,185,9.0,15.0,58,0.00,,,0.00,,2013-01-09 05:33:00,
2013-01-08 21:43:00,43.0,29.0,29.81,South,185,9.0,15.0,58,0.00,,,0.00,,2013-01-09 05:43:00,
2013-01-08 21:52:00,44.0,30.0,29.81,South,183,9.0,16.0,58,0.00,,,0.00,,2013-01-09 05:52:00,
2013-01-08 22:02:00,44.0,30.0,29.81,South,184,12.0,17.0,57,0.00,,,0.00,,2013-01-09 06:02:00,
2013-01-08 22:11:00,44.0,30.0,29.81,South,184,12.0,17.0,57,0.00,,,0.00,,2013-01-09 06:11:00,
2013-01-08 22:22:00,44.0,29.0,29.81,SSE,161,11.0,15.0,56,0.00,,,0.00,,2013-01-09 06:22:00,
2013-01-08 22:32:00,44.0,29.0,29.81,SSW,202,9.0,15.0,56,0.00,,,0.00,,2013-01-09 06:32:00,
2013-01-08 22:42:00,44.0,29.0,29.81,SSW,202,9.0,15.0,56,0.00,,,0.00,,2013-01-09 06:42:00,
2013-01-08 22:52:00,44.0,29.0,29.81,South,184,9.0,14.0,55,0.00,,,0.00,,2013-01-09 06:52:00,
2013-01-08 23:02:00,44.0,29.0,29.81,SSW,192,7.0,12.0,55,0.00,,,0.00,,2013-01-09 07:02:00,
2013-01-08 23:11:00,44.0,29.0,29.81,SSW,192,7.0,12.0,55,0.00,,,0.00,,2013-01-09 07:11:00,
2013-01-08 23:22:00,44.0,29.0,29.81,SSW,207,9.0,12.0,55,0.00,,,0.00,,2013-01-09 07:22:00,
2013-01-08 23:32:00,44.0,29.0,29.81,SSE,158,8.0,13.0,55,0.00,,,0.00,,2013-01-09 07:32:00,
2013-01-08 23:42:00,44.0,29.0,29.81,SSE,158,8.0,13.0,55,0.00,,,0.00,,2013-01-09 07:42:00,
2013-01-08 23:52:00,44.0,28.0,29.81,South,175,10.0,15.0,54,0.00,,,0.00,,2013-01-09 07:52:00,